DateTimeUTC,F1_A11,F1_S11,BsB_S11,BsG_S11,BsR_S11,BbsB_S11,BbsG_S11,BbsR_S11,BaB_A11,BaG_A11,BaR_A11,Tu_S11,T_S11,Uu_S11,U_S11,P_S11,T1_A11
2021-01-29T05:00:00Z,00000200,21000000,,,,,,,-000.17,-000.63,-000.66,15.4,23.4,,00.0,0634.5,30.8
2021-01-29T05:01:00Z,00000200,21000000,,,,,,,-000.30,0000.03,0000.21,15.4,23.3,,00.0,0634.5,30.8
2021-01-29T05:02:00Z,00000200,21000000,,,,,,,0000.24,0000.47,0000.16,15.4,23.3,,00.0,0634.5,30.8
2021-01-29T05:03:00Z,00000200,61000000,,,,,,,0000.22,-000.13,0000.35,15.4,23.3,,00.0,0634.4,30.8
2021-01-29T05:04:00Z,00000200,41000000,0000.64,-000.04,-000.07,0000.19,0000.10,-000.00,0000.04,0000.38,0000.01,15.8,23.1,,00.0,0635.2,30.9
2021-01-29T05:05:00Z,00000200,01000000,-000.34,0000.30,0000.16,-000.14,0000.26,0000.11,0000.21,0000.44,0000.17,15.9,23.1,,00.0,0635.3,30.9
2021-01-29T05:06:00Z,00000200,01000000,-000.38,0000.40,0000.07,0000.28,0000.03,-000.04,-000.17,-000.32,0000.00,16.0,23.1,,00.0,0635.3,30.9
2021-01-29T05:07:00Z,00000200,01000000,0000.15,0000.68,0000.15,0000.02,-000.19,-000.20,-000.08,0000.31,-000.07,16.0,23.1,,00.0,0635.2,30.9
2021-01-29T05:08:00Z,00000200,01000000,0000.73,0000.36,0000.10,-000.34,0000.04,0000.26,0000.54,0000.14,0000.19,16.0,23.1,,00.0,0635.3,30.9
2021-01-29T05:09:00Z,00000200,01000000,0000.56,-000.03,0000.23,0000.16,-000.10,-000.07,-000.29,-000.41,-000.32,16.0,23.1,,00.0,0635.3,30.9
2021-01-29T05:10:00Z,00000200,01000000,-000.51,0000.20,0000.03,-000.10,0000.04,0000.06,0000.09,0000.32,0000.08,15.9,23.0,,00.0,0635.3,30.9
2021-01-29T05:11:00Z,00000200,01000000,-000.08,0000.30,0000.12,0000.31,0000.23,0000.09,0000.40,0000.29,0000.07,15.8,23.0,,00.0,0635.3,30.9
2021-01-29T05:12:00Z,00000200,01000000,0000.11,0000.13,0000.10,-000.60,-000.01,0000.12,-000.35,-000.51,-000.17,15.8,23.0,,00.0,0635.3,30.9
2021-01-29T05:13:00Z,00000200,01000000,-000.15,0000.01,0000.20,-000.46,0000.32,-000.03,0000.27,0000.27,0000.57,15.7,22.9,,00.0,0635.3,30.9
2021-01-29T05:14:00Z,00000200,01000000,-000.42,0000.10,0000.13,-000.13,0000.03,0000.06,0000.48,0000.18,0000.05,15.6,22.9,,00.0,0635.3,30.8
2021-01-29T05:15:00Z,00000200,01000000,0000.31,0000.34,0000.13,0000.09,0000.05,0000.18,-000.00,-000.27,-000.15,15.5,22.8,,00.0,0635.3,30.8
2021-01-29T05:16:00Z,00000200,01000000,0000.08,0000.23,0000.04,0000.22,0000.14,0000.09,0000.20,0000.84,0000.31,15.5,22.8,,00.0,0635.3,30.8
2021-01-29T05:17:00Z,00000200,01000000,-000.36,0000.06,-000.16,0000.02,-000.16,-000.13,0000.19,0000.07,0000.25,15.6,22.8,,00.0,0635.3,30.8
2021-01-29T05:18:00Z,00000200,01000000,-000.10,0000.54,0000.08,-000.18,-000.07,-000.23,0000.33,0000.12,0000.19,15.6,22.8,,00.0,0635.3,30.9
2021-01-29T05:19:00Z,00000200,01000000,0000.36,0000.42,0000.21,-000.05,0000.21,0000.36,0000.11,0000.33,0000.19,15.7,22.9,,00.0,0635.3,30.9
2021-01-29T05:20:00Z,00000200,01000000,0000.25,0000.27,0000.38,-000.41,0000.01,-000.19,-000.14,0000.15,-000.05,15.8,22.9,,00.0,0635.3,30.9
2021-01-29T05:21:00Z,00000200,01000000,0000.30,-000.04,0000.45,-000.10,-000.06,0000.09,0000.37,0000.01,0000.34,15.9,22.9,,00.0,0635.4,30.9
2021-01-29T05:22:00Z,00000200,01000000,0000.38,0000.09,0000.28,-000.31,0000.11,0000.19,-000.09,0000.17,-000.02,15.9,23.0,,00.0,0635.4,30.9
2021-01-29T05:23:00Z,00000200,01000000,0000.27,-000.19,0000.09,-000.08,-000.00,0000.03,0000.05,0000.73,0000.12,16.0,23.0,,00.0,0635.4,30.9
2021-01-29T05:24:00Z,00000200,01000000,-000.10,0000.19,0000.04,-000.44,0000.18,0000.28,0000.82,-000.10,0000.35,16.1,23.0,,00.0,0635.5,30.9
2021-01-29T05:25:00Z,00000200,01000000,-000.67,0000.33,-000.09,-000.27,0000.10,0000.03,-000.44,-000.40,-000.41,16.2,23.0,,00.0,0635.6,30.9
2021-01-29T05:26:00Z,00000200,01000000,0000.16,0000.25,-000.02,0000.05,-000.05,0000.20,-000.31,0000.07,0000.02,16.2,23.1,,00.0,0635.6,30.9
2021-01-29T05:27:00Z,00000200,01000000,0000.90,0000.01,0000.10,-000.15,0000.21,0000.24,0000.34,-000.19,0000.37,16.2,23.1,,00.0,0635.6,30.9
2021-01-29T05:28:00Z,00000200,01000000,-000.39,0000.30,0000.19,0000.12,0000.08,0000.05,0000.03,0000.51,-000.48,16.1,23.0,,00.0,0635.6,30.9
2021-01-29T05:29:00Z,00000200,01000000,0000.49,0000.22,-000.04,0000.38,0000.21,0000.11,0000.23,0000.07,0000.18,16.0,23.0,,00.0,0635.6,30.9
2021-01-29T05:30:00Z,00000200,01000000,-000.11,0000.18,0000.12,0000.00,-000.17,0000.01,-000.18,-000.58,-000.23,16.0,23.0,,00.0,0635.6,30.9
2021-01-29T05:31:00Z,00000200,01000000,-000.45,0000.24,0000.17,0000.20,-000.26,0000.11,0000.20,0000.37,0000.34,15.9,22.9,,00.0,0635.7,30.9
2021-01-29T05:32:00Z,00000200,01000000,-000.04,0000.03,-000.14,0000.33,0000.12,0000.04,0000.29,0000.25,0000.11,16.0,22.9,,00.0,0635.7,30.9
2021-01-29T05:33:00Z,00000200,01000000,-000.18,0000.00,0000.24,0000.07,0000.04,0000.00,0000.17,0000.24,0000.15,16.0,23.0,,00.0,0635.7,30.9
2021-01-29T05:34:00Z,00000200,01000000,-000.04,0000.11,-000.02,-000.36,0000.04,-000.05,-000.09,0000.00,0000.02,16.1,23.0,,00.0,0635.7,30.9
2021-01-29T05:35:00Z,00000200,01000000,-000.06,0000.36,0000.16,0000.07,0000.09,-000.18,0000.11,0000.00,0000.18,16.2,23.1,,00.0,0635.7,30.9
2021-01-29T05:36:00Z,00000200,01000000,-000.44,0000.47,0000.03,0000.06,0000.00,0000.08,0000.33,0000.72,0000.50,16.3,23.1,,00.0,0635.7,30.9
2021-01-29T05:37:00Z,00000200,01000000,-000.40,0000.23,0000.07,-000.69,0000.28,-000.08,0000.01,0000.07,-000.40,16.3,23.1,,00.0,0635.7,30.9
2021-01-29T05:38:00Z,00000200,01000000,0000.13,0000.06,0000.10,-000.03,-000.07,0000.16,0000.42,0000.19,0000.57,16.4,23.2,,00.0,0635.7,30.9
2021-01-29T05:39:00Z,00000200,01000000,-000.37,0000.26,0000.08,-000.03,0000.16,0000.03,-000.16,0000.10,0000.08,16.4,23.2,,00.0,0635.7,30.9
2021-01-29T05:40:00Z,00000200,01000000,-000.38,0000.60,0000.16,-000.73,0000.16,-000.02,0000.24,0000.15,-000.12,16.5,23.2,,00.0,0635.7,31.0
2021-01-29T05:41:00Z,00000200,01000000,0000.11,0000.74,0000.13,-000.05,-000.05,0000.03,0000.07,-000.21,-000.14,16.5,23.2,,00.0,0635.7,31.0
2021-01-29T05:42:00Z,00000200,01000000,0000.02,0000.32,0000.14,-000.22,0000.07,0000.03,0000.40,-000.10,0000.38,16.4,23.2,,00.0,0635.6,30.9
2021-01-29T05:43:00Z,00000200,01000000,0000.53,0000.24,-000.04,0000.12,0000.15,0000.11,-000.29,0000.42,-000.10,16.3,23.2,,00.0,0635.6,30.9
2021-01-29T05:44:00Z,00000200,01000000,0000.26,0000.08,-000.14,-000.14,0000.19,0000.16,0000.23,-000.01,0000.23,16.2,23.2,,00.0,0635.7,30.9
2021-01-29T05:45:00Z,00000200,01000000,-000.13,0000.05,0000.06,-000.01,0000.30,-000.11,-000.14,-000.32,-000.34,16.2,23.1,,00.0,0635.7,30.9
2021-01-29T05:46:00Z,00000200,01000000,-000.76,0000.16,0000.32,0000.20,0000.12,0000.11,0000.71,0000.47,0000.40,16.1,23.1,,00.0,0635.6,30.9
2021-01-29T05:47:00Z,00000200,01000000,0000.44,-000.06,-000.27,-000.26,0000.11,0000.09,0000.13,0000.15,0000.23,16.2,23.1,,00.0,0635.6,30.9
2021-01-29T05:48:00Z,00000200,01000000,0000.37,0000.18,0000.20,0000.12,0000.11,0000.14,0000.44,0000.34,0000.46,16.3,23.1,,00.0,0635.6,30.9
2021-01-29T05:49:00Z,00000200,01000000,-000.43,0000.15,0000.17,-000.83,0000.10,0000.06,-000.00,0000.41,-000.05,16.3,23.1,,00.0,0635.6,30.9
2021-01-29T05:50:00Z,00000200,01000000,0000.40,0000.28,0000.00,-000.28,0000.27,0000.29,0000.34,0000.25,0000.34,16.4,23.2,,00.0,0635.6,30.9
2021-01-29T05:51:00Z,00000200,01000000,0000.36,0000.30,-000.06,-000.53,-000.02,0000.15,0000.01,0000.49,-000.16,16.4,23.2,,00.0,0635.6,30.9
2021-01-29T05:52:00Z,00000200,01000000,-000.31,0000.30,0000.25,-000.15,-000.13,0000.28,0000.23,0000.03,0000.31,16.5,23.3,,00.0,0635.6,30.9
2021-01-29T05:53:00Z,00000200,01000000,-000.34,0000.26,-000.16,0000.03,-000.15,-000.05,-000.11,-000.68,-000.11,16.5,23.3,,00.0,0635.7,30.9
2021-01-29T05:54:00Z,00000200,01000000,0000.68,-000.16,0000.13,0000.25,0000.45,0000.02,0000.30,0000.04,-000.13,16.5,23.3,,00.0,0635.7,30.9
2021-01-29T05:55:00Z,00000200,01000000,0000.01,0000.30,-000.06,-000.61,0000.06,0000.06,-000.14,0000.46,0000.00,16.4,23.2,,00.0,0635.7,30.9
2021-01-29T05:56:00Z,00000200,01000000,-000.88,-000.11,0000.02,-000.23,0000.11,0000.19,0000.37,0000.05,0000.33,16.3,23.2,,00.0,0635.7,30.9
2021-01-29T05:57:00Z,00000200,41000000,,,,,,,0000.44,0000.27,0000.31,16.3,23.2,,00.0,0635.8,30.9
2021-01-29T05:58:00Z,00000200,61000000,,,,,,,-000.01,-000.06,-000.10,15.7,23.3,,00.0,0634.8,30.9
2021-01-29T05:59:00Z,00000200,21000000,,,,,,,-000.27,-000.03,-000.26,15.6,23.4,,00.0,0634.7,30.9
